Location: Lobos
(35.3000°S, 59.0940°W)
Time: 16:56:37
(UTC-03:00)

ISS - Visible Passes

Search period start: 21 September 2020 00:00
Search period end: 01 October 2020 00:00
Orbit: 419 x 420 km, 51.6° (Epoch: 21 September)

Date Brightness Start Highest point End Pass type
(mag) Time Alt. Az. Time Alt. Az. Time Alt. Az.
21 Sep -1.4 05:41:52 10° N 05:44:33 22° NE 05:47:14 10° ESE visible
22 Sep -0.8 04:55:58 10° NNE 04:57:19 12° NE 04:58:41 10° ENE visible
23 Sep -3.7 05:43:48 17° NW 05:46:20 79° NE 05:49:47 10° SE visible
24 Sep -2.8 04:58:44 39° NE 04:58:59 40° NE 05:02:14 10° ESE visible
25 Sep -0.6 04:13:32 15° E 04:13:32 15° E 04:14:23 10° ESE visible
25 Sep -2.7 05:46:31 19° W 05:48:21 32° SW 05:51:29 10° SSE visible
26 Sep -3.3 05:01:11 52° SSW 05:01:11 52° SSW 05:04:14 10° SE visible
27 Sep -0.9 04:15:45 19° SE 04:15:45 19° SE 04:16:50 10° SE visible
27 Sep -1.5 05:48:43 10° WSW 05:50:35 14° SSW 05:52:35 10° S visible
28 Sep -1.9 05:03:11 20° SSW 05:03:11 20° SSW 05:05:36 10° SSE visible
29 Sep -0.9 04:17:35 16° SSE 04:17:35 16° SSE 04:18:27 10° SSE visible
30 Sep -1.1 05:04:53 10° SSW 05:05:13 10° SSW 05:05:56 10° S visible
